{"data":{"norad_id":51997,"epoch":"2026-05-24T23:32:31.911360Z","epoch_age_seconds":66732,"freshness":"FRESH","line1":"1 51997U 22025AT  26144.98092490 -.00001182  00000+0 -56189-4 0  9996","line2":"2 51997  53.2131  36.6339 0001815  91.4942 268.6258 15.08845079232429","mean_motion":15.08845079,"eccentricity":0.0001815,"inclination_deg":53.2131,"raan_deg":36.6339,"arg_perigee_deg":91.4942,"mean_anomaly_deg":268.6258,"bstar":-5.6189e-5,"rev_number":23242,"period_min":95.437233420569,"perigee_km":538.47227206362,"apogee_km":540.98345700945,"semimajor_km":6917.8648645365,"source":"CELESTRAK","updated_at":"2026-05-25T13:38:16.999292Z"}}